This demonstration page uses our WeatherBlox Daily Observations layout. Learn more.

Left ArrowRight Arrow

Hourly Observations for July 6, 2016

Temp ( °F °C ) Dew Point ( °F °C ) Humidity (%) Winds ( mph kmh ) Pressure ( in mb ) Visibility ( mi km ) Precip ( " mm )
12:58 am 00:58 Clear 80 26.7 74 23.4 82 82 SE 6 9 29.72 1006 10 16 0.00 0.00
1:58 am 01:58 Mostly Cloudy 80 26.6 74 23.4 83 83 N 8 13 29.74 1007 10 16 0.00 0.00
2:04 am 02:04 Partly Cloudy with Light Rain 79 26 73 23 84 84 VRB 2 4 29.71 1006 10 16 0.00 0.00
2:13 am 02:13 Partly Cloudy 81 27 73 23 79 79 NNE 5 7 29.71 1006 10 16 0.00 0.00
2:40 am 02:40 Mostly Cloudy with Thunderstorms 79 26 72 22 79 79 NW 9 15 29.71 1006 10 16 0.00 0.00
2:46 am 02:46 Mostly Cloudy with Thunderstorms 79 26 72 22 79 79 NW 8 13 29.71 1006 3 5 0.00 0.00
2:55 am 02:55 Mostly Cloudy with Thunderstorms 77 25 72 22 83 83 N 8 13 29.71 1006 5 8 0.00 0.00
2:58 am 02:58 Mostly Cloudy with Thunderstorms 77 25.2 71 21.7 81 81 N 7 11 29.75 1007 7 11 0.00 0.03
3:12 am 03:12 Partly Cloudy with Nearby Thunderstorms 77 25 72 22 83 83 N 2 4 29.68 1005 10 16 0.00 0.00
3:18 am 03:18 Mostly Cloudy with Thunderstorms 75 24 70 21 83 83 Calm 29.68 1005 6 10 0.00 0.00
3:31 am 03:31 Mostly Cloudy with Thunderstorms 75 24 72 22 89 89 WSW 5 7 29.68 1005 10 16 0.00 0.00
3:38 am 03:38 Partly Cloudy with Thunderstorms 75 24 72 22 89 89 N 1 2 29.68 1005 4 6 0.00 0.00
3:49 am 03:49 Cloudy with Thunderstorms 75 24 72 22 89 89 ENE 5 7 29.71 1006 7 11 0.00 0.00
3:58 am 03:58 Cloudy with Thunderstorms 74 23.5 72 22.2 92 92 SE 8 13 29.74 1007 10 16 0.00 0.03
4:00 am 04:00 Cloudy with Thunderstorms 75 24 72 22 89 89 ESE 7 11 29.68 1005 10 16 0.00 0.00
4:11 am 04:11 Mostly Cloudy with Thunderstorms 73 23 70 21 89 89 E 5 7 29.68 1005 10 16 0.00 0.00
4:38 am 04:38 Mostly Cloudy with Thunderstorms 73 23 72 22 94 94 NW 18 30 29.71 1006 10 16 0.00 0.00
4:58 am 04:58 Mostly Cloudy with Thunderstorms 75 24 66 19 74 74 WSW 7 11 29.79 1009 10 16 0.00 0.03
5:09 am 05:09 Mostly Cloudy with Thunderstorms 75 24 68 20 78 78 NNE 9 15 29.71 1006 10 16 0.00 0.00
5:23 am 05:23 Mostly Cloudy with Thunderstorms 73 23 66 19 78 78 NE 9 15 29.68 1005 10 16 0.00 0.00
5:42 am 05:42 Mostly Cloudy with Nearby Thunderstorms 73 23 66 19 78 78 ENE 12 19 29.68 1005 10 16 0.00 0.00
5:58 am 05:58 Mostly Cloudy 74 23.2 67 19.4 79 79 ESE 12 19 29.72 1006 10 16 0.03 0.76
6:58 am 06:58 Sunny 73 22.5 66 18.8 80 80 E 6 9 29.72 1006 10 16 0.00 0.00
7:58 am 07:58 Sunny 73 22.6 67 19.7 84 84 W 8 13 29.74 1007 10 16 0.00 0.00
8:58 am 08:58 Sunny 77 25.2 69 20.6 76 76 NW 8 13 29.76 1008 10 16 0.00 0.00
9:58 am 09:58 Sunny 81 27.1 67 19.5 63 63 SE 14 22 29.81 1009 10 16 0.00 0.00
10:58 am 10:58 Sunny 81 27.4 69 20.4 66 66 VRB 2 4 29.78 1008 10 16 0.00 0.00
11:58 am 11:58 Sunny 85 29.2 67 19.2 55 55 WNW 5 7 29.78 1008 10 16 0.00 0.00
12:58 pm 12:58 Sunny 87 30.3 71 21.4 59 59 NE 8 13 29.76 1008 10 16 0.00 0.00
1:58 pm 13:58 Sunny 89 31.7 68 20 50 50 NE 7 11 29.76 1008 10 16 0.00 0.03
2:58 pm 14:58 Sunny 89 31.9 72 22 56 56 VRB 2 4 29.77 1008 10 16 0.00 0.00
3:58 pm 15:58 Mostly Sunny 90 32 73 22.8 58 58 ESE 6 9 29.77 1008 10 16 0.00 0.00
4:58 pm 16:58 Sunny 90 32.1 75 23.9 62 62 E 8 13 29.76 1008 10 16 0.00 0.00
5:58 pm 17:58 Mostly Sunny 89 31.7 76 24.4 65 65 ESE 10 17 29.75 1007 10 16 0.00 0.00
6:58 pm 18:58 Sunny 87 30.7 76 24.5 70 70 ESE 10 17 29.74 1007 10 16 0.00 0.03
7:58 pm 19:58 Sunny 85 29.6 76 24.3 73 73 E 10 17 29.75 1008 10 16 0.00 0.03
8:58 pm 20:58 Sunny 82 27.5 75 24 81 81 ESE 9 15 29.72 1007 10 16 0.00 0.00
9:58 pm 21:58 Clear 81 27.2 75 23.8 82 82 ESE 9 15 29.72 1007 10 16 0.00 0.00
10:58 pm 22:58 Clear 80 26.5 75 23.7 85 85 ESE 10 17 29.73 1007 10 16 0.00 0.00
11:58 pm 23:58 Mostly Clear 78 25.7 75 23.7 89 89 E 8 13 29.73 1007 10 16 0.00 0.00

Powered by AerisWeather